DLH9912 EDDF-LETL

Flight info

Callsign DLH9912
Flight time 1h 51m
Altitude 39000
Route ANEKI2L/18 ANEKI Y163 HERBI Y164 MOPAN/N0471F410 DCT LUTIX DCT BENOT DCT NEMOS DCT NINTU DCT REPSI DCT LERGA DCT MINSO DCT NARAK DCT AGN DCT MAQAB DCT TIVLI N869 EXEMU M176 DISVU
Aircraft A346/H-SDE2E3FGHIJ3J4J5M1RWXY/LB1D1

Departure

Time 2026-05-07 18:06
Airport Frankfurt Main Airport (EDDF)

Arrival

Time 2026-05-07 19:58
Airport Teruel Airport (LETL)
Time Latitude Longitude Altitude Speed Heading
2026-05-07 17:25 50.03337 8.58665 369 ft 0 kts 294°
2026-05-07 17:47 50.03334 8.58677 367 ft 4 kts 294°
2026-05-07 17:47 50.03322 8.58715 373 ft 4 kts 294°
2026-05-07 17:48 50.03312 8.58746 366 ft 4 kts 307°
2026-05-07 17:48 50.03299 8.58765 372 ft 4 kts 340°
2026-05-07 17:48 50.03281 8.58766 372 ft 4 kts 18°
2026-05-07 17:48 50.03257 8.58750 369 ft 4 kts 26°
2026-05-07 17:49 50.03246 8.58741 371 ft 0 kts 24°
2026-05-07 17:52 50.03256 8.58748 369 ft 10 kts 24°
2026-05-07 17:53 50.03361 8.58823 371 ft 19 kts 24°
2026-05-07 17:53 50.03493 8.58917 373 ft 22 kts 24°
2026-05-07 17:53 50.03639 8.58908 371 ft 15 kts 340°
2026-05-07 17:53 50.03664 8.58894 372 ft 0 kts 340°
2026-05-07 17:57 50.03672 8.58889 372 ft 0 kts 340°
2026-05-07 17:57 50.03673 8.58889 372 ft 0 kts 340°
2026-05-07 17:58 50.03677 8.58886 374 ft 6 kts 340°
2026-05-07 17:58 50.03744 8.58828 373 ft 13 kts 295°
2026-05-07 17:59 50.03722 8.58664 374 ft 18 kts 249°
2026-05-07 17:59 50.03670 8.58448 371 ft 23 kts 250°
2026-05-07 17:59 50.03610 8.58192 370 ft 27 kts 250°
2026-05-07 17:59 50.03540 8.57898 370 ft 30 kts 250°
2026-05-07 18:00 50.03466 8.57586 370 ft 32 kts 249°
2026-05-07 18:00 50.03384 8.57247 366 ft 34 kts 249°
2026-05-07 18:00 50.03300 8.56896 364 ft 35 kts 250°
2026-05-07 18:00 50.03212 8.56529 363 ft 37 kts 249°
2026-05-07 18:01 50.03124 8.56148 357 ft 38 kts 250°
2026-05-07 18:01 50.03053 8.55851 355 ft 26 kts 249°
2026-05-07 18:01 50.02985 8.55573 355 ft 29 kts 249°
2026-05-07 18:01 50.02919 8.55297 357 ft 23 kts 249°
2026-05-07 18:02 50.02787 8.54746 355 ft 29 kts 249°
2026-05-07 18:02 50.02716 8.54453 356 ft 29 kts 249°
2026-05-07 18:02 50.02653 8.54148 353 ft 29 kts 250°
2026-05-07 18:03 50.02589 8.53875 353 ft 24 kts 249°
2026-05-07 18:03 50.02527 8.53613 354 ft 27 kts 249°
2026-05-07 18:03 50.02461 8.53342 351 ft 21 kts 249°
2026-05-07 18:03 50.02409 8.53127 348 ft 23 kts 250°
2026-05-07 18:04 50.02362 8.52928 351 ft 14 kts 250°
2026-05-07 18:04 50.02335 8.52812 348 ft 0 kts 249°
2026-05-07 18:04 50.02317 8.52741 351 ft 20 kts 249°
2026-05-07 18:04 50.02276 8.52622 351 ft 8 kts 212°
2026-05-07 18:05 50.02231 8.52609 349 ft 0 kts 181°
2026-05-07 18:05 50.02126 8.52607 350 ft 58 kts 180°
2026-05-07 18:06 50.01337 8.52615 346 ft 163 kts 180°
2026-05-07 18:06 50.00092 8.52611 1181 ft 183 kts 180°
2026-05-07 18:06 49.98820 8.52624 2436 ft 182 kts 178°
2026-05-07 18:06 49.97511 8.52727 3296 ft 197 kts 177°
2026-05-07 18:07 49.96041 8.52856 3853 ft 225 kts 178°
2026-05-07 18:07 49.94430 8.52985 3983 ft 235 kts 178°
2026-05-07 18:07 49.92729 8.53111 4154 ft 259 kts 178°
2026-05-07 18:07 49.90869 8.53247 5202 ft 269 kts 178°
2026-05-07 18:08 49.89009 8.53388 6804 ft 261 kts 179°
2026-05-07 18:08 49.87227 8.53516 8378 ft 252 kts 179°
2026-05-07 18:08 49.85486 8.53638 9870 ft 248 kts 179°
2026-05-07 18:08 49.83751 8.53755 10986 ft 253 kts 179°
2026-05-07 18:09 49.81965 8.53874 11952 ft 260 kts 179°
2026-05-07 18:09 49.80141 8.53997 12756 ft 267 kts 179°
2026-05-07 18:09 49.78266 8.53973 13818 ft 273 kts 191°
2026-05-07 18:09 49.76384 8.53219 14572 ft 288 kts 200°
2026-05-07 18:10 49.74409 8.52177 15255 ft 307 kts 201°
2026-05-07 18:10 49.72347 8.51084 15913 ft 325 kts 200°
2026-05-07 18:10 49.70133 8.49954 16556 ft 345 kts 200°
2026-05-07 18:10 49.67791 8.48797 17170 ft 364 kts 199°
2026-05-07 18:11 49.65318 8.47602 17903 ft 378 kts 199°
2026-05-07 18:11 49.63648 8.46807 18541 ft 382 kts 199°
2026-05-07 18:11 49.60219 8.45195 19800 ft 388 kts 199°
2026-05-07 18:11 49.57622 8.43980 20722 ft 393 kts 199°
2026-05-07 18:12 49.54986 8.42750 21630 ft 399 kts 199°
2026-05-07 18:12 49.52314 8.41506 22527 ft 404 kts 199°
2026-05-07 18:12 49.49604 8.40245 23396 ft 410 kts 199°
2026-05-07 18:12 49.46856 8.38969 24132 ft 415 kts 199°
2026-05-07 18:13 49.44073 8.37679 24827 ft 420 kts 199°
2026-05-07 18:13 49.41260 8.36380 25579 ft 425 kts 199°
2026-05-07 18:13 49.38412 8.35063 26330 ft 429 kts 199°
2026-05-07 18:13 49.35533 8.33732 27066 ft 434 kts 199°
2026-05-07 18:14 49.32623 8.32388 27796 ft 440 kts 199°
2026-05-07 18:14 49.29678 8.31029 28520 ft 445 kts 199°
2026-05-07 18:14 49.26694 8.29655 29220 ft 450 kts 199°
2026-05-07 18:14 49.23687 8.28272 29990 ft 453 kts 199°
2026-05-07 18:15 49.20655 8.26883 30696 ft 455 kts 199°
2026-05-07 18:15 49.17618 8.25492 31340 ft 458 kts 199°
2026-05-07 18:15 49.14563 8.24093 32154 ft 457 kts 199°
2026-05-07 18:15 49.11530 8.22708 33081 ft 453 kts 199°
2026-05-07 18:16 49.08560 8.21353 33963 ft 451 kts 199°
2026-05-07 18:16 49.05522 8.19967 34698 ft 449 kts 199°
2026-05-07 18:16 49.02533 8.18604 35392 ft 447 kts 199°
2026-05-07 18:16 48.99605 8.17273 36061 ft 445 kts 199°
2026-05-07 18:17 48.96605 8.15910 36765 ft 443 kts 199°
2026-05-07 18:17 48.93656 8.14572 37423 ft 441 kts 199°
2026-05-07 18:17 48.90720 8.13240 37999 ft 441 kts 199°
2026-05-07 18:17 48.87775 8.11906 38471 ft 443 kts 199°
2026-05-07 18:18 48.84812 8.10565 38846 ft 445 kts 199°
2026-05-07 18:18 48.81871 8.09236 39039 ft 449 kts 199°
2026-05-07 18:18 48.78823 8.07861 39031 ft 450 kts 199°
2026-05-07 18:19 48.72855 8.05178 39045 ft 451 kts 199°
2026-05-07 18:19 48.66831 8.02471 39049 ft 451 kts 199°
2026-05-07 18:20 48.60789 7.99764 39050 ft 450 kts 199°
2026-05-07 18:20 48.54779 7.97078 39050 ft 450 kts 199°
2026-05-07 18:21 48.48770 7.94399 39050 ft 450 kts 199°
2026-05-07 18:21 48.42747 7.91720 39049 ft 450 kts 199°
2026-05-07 18:21 48.40355 7.90533 38884 ft 386 kts 201°
2026-05-07 18:22 48.37744 7.89351 38975 ft 396 kts 200°
2026-05-07 18:22 48.32309 7.87013 39039 ft 418 kts 199°
2026-05-07 18:22 48.29697 7.85790 38922 ft 381 kts 202°
2026-05-07 18:23 48.27066 7.84618 38949 ft 393 kts 199°
2026-05-07 18:23 48.21616 7.82299 39036 ft 414 kts 199°
2026-05-07 18:23 48.18791 7.81083 39051 ft 425 kts 199°
2026-05-07 18:24 48.15913 7.79835 39045 ft 436 kts 199°
2026-05-07 18:24 48.09978 7.77248 39050 ft 448 kts 199°
2026-05-07 18:25 48.03961 7.74627 39046 ft 449 kts 199°
2026-05-07 18:25 47.97947 7.72007 39045 ft 450 kts 199°
2026-05-07 18:26 47.91946 7.69394 39039 ft 449 kts 200°
2026-05-07 18:26 47.85883 7.66757 39039 ft 448 kts 199°
2026-05-07 18:27 47.79830 7.64132 39029 ft 448 kts 199°
2026-05-07 18:27 47.74848 7.61976 39014 ft 448 kts 199°
2026-05-07 18:28 47.68872 7.59400 39022 ft 448 kts 199°
2026-05-07 18:28 47.62881 7.56823 39021 ft 448 kts 199°
2026-05-07 18:29 47.56894 7.54253 39024 ft 448 kts 199°
2026-05-07 18:29 47.50897 7.51681 39017 ft 448 kts 199°
2026-05-07 18:30 47.44898 7.49119 39025 ft 448 kts 199°
2026-05-07 18:30 47.38901 7.46563 39033 ft 448 kts 199°
2026-05-07 18:31 47.32911 7.44018 39021 ft 447 kts 199°
2026-05-07 18:31 47.26938 7.41483 39023 ft 447 kts 199°
2026-05-07 18:32 47.21175 7.38227 39022 ft 442 kts 209°
2026-05-07 18:32 47.15948 7.33490 39020 ft 439 kts 219°
2026-05-07 18:33 47.11474 7.27548 39020 ft 435 kts 229°
2026-05-07 18:33 47.07622 7.20697 39017 ft 435 kts 233°
2026-05-07 18:34 47.03856 7.13750 39027 ft 435 kts 233°
2026-05-07 18:34 47.00073 7.06815 39022 ft 435 kts 233°
2026-05-07 18:35 46.96281 6.99891 39009 ft 435 kts 233°
2026-05-07 18:35 46.92494 6.92994 39022 ft 434 kts 232°
2026-05-07 18:36 46.88706 6.86115 39023 ft 434 kts 232°
2026-05-07 18:36 46.84908 6.79242 39023 ft 434 kts 232°
2026-05-07 18:37 46.81105 6.72378 39023 ft 434 kts 232°
2026-05-07 18:37 46.77324 6.65573 39004 ft 434 kts 232°
2026-05-07 18:38 46.73516 6.58759 39017 ft 432 kts 232°
2026-05-07 18:38 46.69719 6.51959 39019 ft 432 kts 232°
2026-05-07 18:39 46.65918 6.45155 39032 ft 433 kts 232°
2026-05-07 18:39 46.62109 6.38350 39021 ft 433 kts 232°
2026-05-07 18:40 46.58291 6.31551 39021 ft 434 kts 232°
2026-05-07 18:40 46.54456 6.24746 39016 ft 433 kts 232°
2026-05-07 18:41 46.50629 6.17975 39023 ft 433 kts 232°
2026-05-07 18:41 46.46797 6.11210 39016 ft 433 kts 232°
2026-05-07 18:42 46.42963 6.04461 39016 ft 433 kts 232°
2026-05-07 18:42 46.39125 5.97726 39001 ft 432 kts 232°
2026-05-07 18:43 46.35290 5.91012 39000 ft 432 kts 231°
2026-05-07 18:43 46.31455 5.84313 39000 ft 432 kts 231°
2026-05-07 18:44 46.27615 5.77621 39004 ft 432 kts 231°
2026-05-07 18:44 46.23772 5.70938 39007 ft 432 kts 231°
2026-05-07 18:45 46.19926 5.64266 39003 ft 432 kts 231°
2026-05-07 18:45 46.16084 5.57608 39003 ft 431 kts 232°
2026-05-07 18:46 46.12524 5.50641 39003 ft 431 kts 236°
2026-05-07 18:46 46.09130 5.43571 38997 ft 431 kts 236°
2026-05-07 18:47 46.05709 5.36461 38995 ft 431 kts 236°
2026-05-07 18:47 46.02285 5.29359 38988 ft 431 kts 236°
2026-05-07 18:48 45.98861 5.22271 38990 ft 431 kts 236°
2026-05-07 18:48 45.95431 5.15190 38991 ft 431 kts 236°
2026-05-07 18:49 45.91993 5.08107 38994 ft 432 kts 236°
2026-05-07 18:49 45.88549 5.01033 38995 ft 432 kts 236°
2026-05-07 18:50 45.85270 4.94312 38988 ft 432 kts 236°
2026-05-07 18:50 45.81990 4.87604 38994 ft 432 kts 236°
2026-05-07 18:51 45.78531 4.80550 38995 ft 432 kts 236°
2026-05-07 18:51 45.75068 4.73506 38997 ft 432 kts 235°
2026-05-07 18:52 45.71590 4.66446 39008 ft 432 kts 235°
2026-05-07 18:52 45.68116 4.59414 38993 ft 432 kts 235°
2026-05-07 18:53 45.65227 4.53578 38995 ft 432 kts 235°
2026-05-07 18:53 45.62533 4.48152 38997 ft 432 kts 235°
2026-05-07 18:54 45.60050 4.43158 38997 ft 432 kts 235°
2026-05-07 18:54 45.56562 4.36157 38995 ft 432 kts 235°
2026-05-07 18:55 45.53068 4.29164 38995 ft 432 kts 235°
2026-05-07 18:55 45.49573 4.22175 38994 ft 432 kts 235°
2026-05-07 18:56 45.46069 4.15188 38995 ft 433 kts 235°
2026-05-07 18:56 45.42562 4.08218 38996 ft 433 kts 235°
2026-05-07 18:57 45.39049 4.01252 38991 ft 433 kts 235°
2026-05-07 18:57 45.35531 3.94293 38991 ft 433 kts 234°
2026-05-07 18:58 45.32012 3.87348 38993 ft 433 kts 234°
2026-05-07 18:58 45.28513 3.80461 38992 ft 432 kts 234°
2026-05-07 18:59 45.24996 3.73536 38986 ft 432 kts 235°
2026-05-07 18:59 45.21530 3.66485 38984 ft 432 kts 236°
2026-05-07 19:00 45.18118 3.59539 38987 ft 432 kts 235°
2026-05-07 19:00 45.14647 3.52513 39117 ft 439 kts 235°
2026-05-07 19:00 45.12897 3.48978 39532 ft 438 kts 235°
2026-05-07 19:01 45.11147 3.45448 39998 ft 436 kts 235°
2026-05-07 19:01 45.09403 3.41936 40397 ft 436 kts 235°
2026-05-07 19:01 45.07657 3.38424 40744 ft 436 kts 235°
2026-05-07 19:01 45.05907 3.34906 40960 ft 438 kts 235°
2026-05-07 19:02 45.04148 3.31376 40975 ft 438 kts 235°
2026-05-07 19:02 45.00629 3.24324 40979 ft 438 kts 235°
2026-05-07 19:03 44.97112 3.17291 40981 ft 438 kts 235°
2026-05-07 19:03 44.93585 3.10253 40977 ft 438 kts 235°
2026-05-07 19:04 44.90053 3.03229 40987 ft 439 kts 235°
2026-05-07 19:04 44.86511 2.96205 40979 ft 439 kts 235°
2026-05-07 19:05 44.83089 2.89064 40979 ft 439 kts 237°
2026-05-07 19:05 44.79766 2.81846 40974 ft 439 kts 237°
2026-05-07 19:06 44.76435 2.74628 40972 ft 439 kts 237°
2026-05-07 19:06 44.71430 2.63818 40973 ft 439 kts 237°
2026-05-07 19:07 44.68086 2.56617 40971 ft 440 kts 237°
2026-05-07 19:07 44.64733 2.49413 40957 ft 440 kts 237°
2026-05-07 19:08 44.61378 2.42223 40974 ft 440 kts 237°
2026-05-07 19:08 44.58040 2.35088 40959 ft 440 kts 237°
2026-05-07 19:09 44.54701 2.27968 40975 ft 440 kts 237°
2026-05-07 19:09 44.51606 2.21382 40968 ft 440 kts 237°
2026-05-07 19:10 44.48231 2.14218 40967 ft 440 kts 237°
2026-05-07 19:10 44.44840 2.07040 40960 ft 440 kts 237°
2026-05-07 19:11 44.41460 1.99906 40961 ft 440 kts 237°
2026-05-07 19:11 44.38071 1.92775 40953 ft 440 kts 237°
2026-05-07 19:12 44.34676 1.85637 40955 ft 441 kts 237°
2026-05-07 19:12 44.31268 1.78495 40953 ft 441 kts 237°
2026-05-07 19:13 44.27886 1.71328 40952 ft 441 kts 238°
2026-05-07 19:13 44.24584 1.64107 40949 ft 441 kts 238°
2026-05-07 19:14 44.21836 1.58112 40949 ft 441 kts 238°
2026-05-07 19:14 44.18513 1.50896 40944 ft 442 kts 238°
2026-05-07 19:15 44.15184 1.43685 40944 ft 442 kts 238°
2026-05-07 19:15 44.11996 1.36803 40939 ft 442 kts 238°
2026-05-07 19:16 44.08715 1.29736 40941 ft 442 kts 237°
2026-05-07 19:16 44.05366 1.22546 40944 ft 443 kts 237°
2026-05-07 19:17 44.02012 1.15362 40932 ft 443 kts 237°
2026-05-07 19:17 43.98652 1.08181 40942 ft 444 kts 237°
2026-05-07 19:18 43.95277 1.00993 40938 ft 444 kts 237°
2026-05-07 19:18 43.91861 0.93850 40939 ft 444 kts 235°
2026-05-07 19:19 43.88710 0.88223 40937 ft 445 kts 230°
2026-05-07 19:19 43.86477 0.84775 40935 ft 445 kts 227°
2026-05-07 19:20 43.81991 0.78856 40930 ft 445 kts 223°
2026-05-07 19:20 43.77402 0.73180 40938 ft 445 kts 223°
2026-05-07 19:21 43.72780 0.67478 40942 ft 445 kts 223°
2026-05-07 19:21 43.68156 0.61789 40941 ft 445 kts 223°
2026-05-07 19:22 43.63527 0.56108 40936 ft 445 kts 223°
2026-05-07 19:22 43.58895 0.50436 40935 ft 445 kts 223°
2026-05-07 19:23 43.54258 0.44772 40938 ft 445 kts 223°
2026-05-07 19:23 43.49621 0.39119 40937 ft 445 kts 223°
2026-05-07 19:24 43.44977 0.33467 40938 ft 445 kts 222°
2026-05-07 19:24 43.40333 0.27832 40933 ft 445 kts 222°
2026-05-07 19:25 43.35683 0.22201 40935 ft 445 kts 222°
2026-05-07 19:25 43.31032 0.16584 40941 ft 445 kts 222°
2026-05-07 19:26 43.26378 0.10976 40946 ft 445 kts 222°
2026-05-07 19:26 43.21720 0.05375 40940 ft 445 kts 222°
2026-05-07 19:27 43.17074 -0.00200 40939 ft 444 kts 222°
2026-05-07 19:27 43.12418 -0.05780 40941 ft 445 kts 222°
2026-05-07 19:28 43.07787 -0.11313 40946 ft 444 kts 222°
2026-05-07 19:28 43.03091 -0.16912 40952 ft 445 kts 222°
2026-05-07 19:29 42.98463 -0.22419 40956 ft 444 kts 222°
2026-05-07 19:29 42.93795 -0.27964 40973 ft 444 kts 222°
2026-05-07 19:30 42.89093 -0.33535 40970 ft 444 kts 222°
2026-05-07 19:30 42.84309 -0.38775 40979 ft 445 kts 217°
2026-05-07 19:31 42.79097 -0.43369 40992 ft 447 kts 211°
2026-05-07 19:31 42.73542 -0.47195 40987 ft 448 kts 205°
2026-05-07 19:32 42.67731 -0.50341 40994 ft 449 kts 203°
2026-05-07 19:32 42.61909 -0.53411 40990 ft 449 kts 204°
2026-05-07 19:33 42.58997 -0.54949 40873 ft 449 kts 204°
2026-05-07 19:33 42.56089 -0.56484 40618 ft 447 kts 204°
2026-05-07 19:33 42.53196 -0.58006 40345 ft 445 kts 204°
2026-05-07 19:33 42.50308 -0.59521 39998 ft 442 kts 204°
2026-05-07 19:34 42.47439 -0.61024 39532 ft 442 kts 204°
2026-05-07 19:34 42.44567 -0.62527 38995 ft 443 kts 204°
2026-05-07 19:34 42.41690 -0.64029 38384 ft 444 kts 204°
2026-05-07 19:34 42.38805 -0.65534 37739 ft 443 kts 204°
2026-05-07 19:35 42.35933 -0.67031 37164 ft 442 kts 204°
2026-05-07 19:35 42.33074 -0.68519 36634 ft 440 kts 203°
2026-05-07 19:35 42.30222 -0.70003 36100 ft 438 kts 203°
2026-05-07 19:35 42.27378 -0.71480 35546 ft 437 kts 203°
2026-05-07 19:36 42.24552 -0.72947 35001 ft 436 kts 203°
2026-05-07 19:36 42.21720 -0.74416 34423 ft 436 kts 203°
2026-05-07 19:36 42.18890 -0.75882 33799 ft 436 kts 203°
2026-05-07 19:36 42.16051 -0.77347 33082 ft 437 kts 203°
2026-05-07 19:37 42.13208 -0.78815 32337 ft 438 kts 203°
2026-05-07 19:37 42.10370 -0.80284 31675 ft 437 kts 203°
2026-05-07 19:37 42.07531 -0.81751 31039 ft 436 kts 203°
2026-05-07 19:37 42.04742 -0.83189 30478 ft 433 kts 203°
2026-05-07 19:38 42.01908 -0.84647 30106 ft 427 kts 202°
2026-05-07 19:38 41.99182 -0.86048 29692 ft 424 kts 202°
2026-05-07 19:38 41.96429 -0.87463 29277 ft 422 kts 202°
2026-05-07 19:38 41.93692 -0.88868 28844 ft 420 kts 202°
2026-05-07 19:39 41.90970 -0.90264 28391 ft 417 kts 202°
2026-05-07 19:39 41.88265 -0.91649 27930 ft 414 kts 202°
2026-05-07 19:39 41.85584 -0.93020 27465 ft 411 kts 202°
2026-05-07 19:39 41.82926 -0.94379 26986 ft 408 kts 202°
2026-05-07 19:40 41.80285 -0.95728 26530 ft 404 kts 202°
2026-05-07 19:40 41.77663 -0.97066 26077 ft 401 kts 201°
2026-05-07 19:40 41.75066 -0.98389 25607 ft 398 kts 201°
2026-05-07 19:40 41.72489 -0.99701 25145 ft 395 kts 201°
2026-05-07 19:41 41.69927 -1.01005 24701 ft 392 kts 201°
2026-05-07 19:41 41.67425 -1.02404 24254 ft 388 kts 205°
2026-05-07 19:41 41.65024 -1.04045 23811 ft 386 kts 209°
2026-05-07 19:41 41.62742 -1.05915 23349 ft 383 kts 213°
2026-05-07 19:42 41.60546 -1.07914 22855 ft 380 kts 214°
2026-05-07 19:42 41.58377 -1.09908 22379 ft 377 kts 214°
2026-05-07 19:42 41.56220 -1.11893 21922 ft 374 kts 214°
2026-05-07 19:42 41.54082 -1.13858 21470 ft 371 kts 214°
2026-05-07 19:43 41.51961 -1.15805 21013 ft 369 kts 214°
2026-05-07 19:43 41.49853 -1.17738 20567 ft 367 kts 214°
2026-05-07 19:43 41.47754 -1.19661 20121 ft 365 kts 214°
2026-05-07 19:43 41.45670 -1.21569 19668 ft 363 kts 214°
2026-05-07 19:44 41.43594 -1.23468 19205 ft 361 kts 215°
2026-05-07 19:44 41.41519 -1.25365 18765 ft 360 kts 215°
2026-05-07 19:44 41.39453 -1.27251 18309 ft 359 kts 215°
2026-05-07 19:44 41.37395 -1.29129 17800 ft 358 kts 215°
2026-05-07 19:45 41.35347 -1.30997 17332 ft 356 kts 215°
2026-05-07 19:45 41.33313 -1.32851 16885 ft 354 kts 215°
2026-05-07 19:45 41.31285 -1.34698 16440 ft 351 kts 215°
2026-05-07 19:45 41.29257 -1.36498 15993 ft 349 kts 210°
2026-05-07 19:46 41.26996 -1.37648 15553 ft 349 kts 193°
2026-05-07 19:46 41.24580 -1.37838 15111 ft 350 kts 176°
2026-05-07 19:46 41.22166 -1.37380 14678 ft 350 kts 172°
2026-05-07 19:46 41.19765 -1.36852 14209 ft 350 kts 172°
2026-05-07 19:47 41.17363 -1.36316 13758 ft 350 kts 171°
2026-05-07 19:47 41.14965 -1.35793 13268 ft 349 kts 172°
2026-05-07 19:47 41.12610 -1.35283 12822 ft 347 kts 171°
2026-05-07 19:47 41.10238 -1.34769 12377 ft 344 kts 172°
2026-05-07 19:48 41.07877 -1.34268 11947 ft 342 kts 172°
2026-05-07 19:48 41.05537 -1.33772 11532 ft 340 kts 172°
2026-05-07 19:48 41.03213 -1.33282 11107 ft 337 kts 172°
2026-05-07 19:48 41.00904 -1.32799 10702 ft 335 kts 171°
2026-05-07 19:49 40.98644 -1.32319 10515 ft 323 kts 171°
2026-05-07 19:49 40.96468 -1.31860 10390 ft 310 kts 171°
2026-05-07 19:49 40.94384 -1.31421 10262 ft 298 kts 171°
2026-05-07 19:49 40.92378 -1.30997 10155 ft 286 kts 171°
2026-05-07 19:50 40.90447 -1.30589 10053 ft 277 kts 171°
2026-05-07 19:50 40.88554 -1.30194 9815 ft 276 kts 171°
2026-05-07 19:50 40.86663 -1.29785 9473 ft 275 kts 169°
2026-05-07 19:50 40.84796 -1.29285 9179 ft 272 kts 168°
2026-05-07 19:51 40.82925 -1.28774 9014 ft 278 kts 168°
2026-05-07 19:51 40.81020 -1.28252 8966 ft 280 kts 168°
2026-05-07 19:51 40.79120 -1.27732 9014 ft 281 kts 168°
2026-05-07 19:51 40.77178 -1.27203 9010 ft 282 kts 168°
2026-05-07 19:52 40.75264 -1.26681 9005 ft 281 kts 168°
2026-05-07 19:52 40.73342 -1.26227 9013 ft 282 kts 172°
2026-05-07 19:52 40.71357 -1.25870 9011 ft 282 kts 172°
2026-05-07 19:52 40.69391 -1.25528 9008 ft 282 kts 172°
2026-05-07 19:53 40.67450 -1.25191 8940 ft 280 kts 172°
2026-05-07 19:53 40.65535 -1.24793 8742 ft 274 kts 166°
2026-05-07 19:53 40.63743 -1.24117 8314 ft 262 kts 165°
2026-05-07 19:53 40.61988 -1.23527 7765 ft 257 kts 167°
2026-05-07 19:54 40.60229 -1.23103 7274 ft 254 kts 173°
2026-05-07 19:54 40.58478 -1.22863 6671 ft 251 kts 175°
2026-05-07 19:54 40.56775 -1.22702 6273 ft 241 kts 177°
2026-05-07 19:54 40.55141 -1.22610 5995 ft 229 kts 178°
2026-05-07 19:55 40.53593 -1.22528 5798 ft 217 kts 176°
2026-05-07 19:55 40.52121 -1.22406 5478 ft 208 kts 176°
2026-05-07 19:55 40.50704 -1.22293 5183 ft 198 kts 177°
2026-05-07 19:55 40.49365 -1.22209 4889 ft 189 kts 178°
2026-05-07 19:56 40.48071 -1.22147 4500 ft 182 kts 178°
2026-05-07 19:56 40.46862 -1.22069 4229 ft 168 kts 177°
2026-05-07 19:56 40.45736 -1.22005 3983 ft 155 kts 177°
2026-05-07 19:56 40.44697 -1.21955 3776 ft 146 kts 176°
2026-05-07 19:57 40.43688 -1.21895 3586 ft 144 kts 176°
2026-05-07 19:57 40.42689 -1.21836 3405 ft 143 kts 175°
2026-05-07 19:57 40.41738 -1.21785 3359 ft 121 kts 178°
2026-05-07 19:57 40.41119 -1.21757 3359 ft 57 kts 178°
2026-05-07 19:58 40.40797 -1.21736 3372 ft 43 kts 177°
2026-05-07 19:58 40.40514 -1.21719 3379 ft 39 kts 177°
2026-05-07 19:58 40.40269 -1.21709 3380 ft 35 kts 179°
2026-05-07 19:58 40.40082 -1.21672 3385 ft 22 kts 151°
2026-05-07 19:59 40.39979 -1.21622 3381 ft 10 kts 180°
2026-05-07 19:59 40.39945 -1.21672 3383 ft 10 kts 283°
2026-05-07 19:59 40.39981 -1.21697 3383 ft 11 kts 360°
2026-05-07 19:59 40.40103 -1.21699 3383 ft 26 kts 358°
2026-05-07 20:00 40.40387 -1.21713 3387 ft 32 kts 358°
2026-05-07 20:00 40.40617 -1.21726 3378 ft 33 kts 358°
2026-05-07 20:00 40.40846 -1.21738 3366 ft 31 kts 358°
2026-05-07 20:00 40.41045 -1.21749 3359 ft 19 kts 357°
2026-05-07 20:01 40.41175 -1.21757 3358 ft 20 kts 357°
2026-05-07 20:01 40.41276 -1.21762 3355 ft 17 kts 357°
2026-05-07 20:01 40.41363 -1.21794 3364 ft 11 kts 305°
2026-05-07 20:01 40.41367 -1.21906 3359 ft 14 kts 268°
2026-05-07 20:02 40.41363 -1.22005 3361 ft 9 kts 266°
2026-05-07 20:02 40.41352 -1.22063 3365 ft 7 kts 228°
2026-05-07 20:02 40.41294 -1.22076 3368 ft 11 kts 179°
2026-05-07 20:02 40.41247 -1.22074 3368 ft 4 kts 181°
2026-05-07 20:03 40.41230 -1.22098 3369 ft 5 kts 259°
2026-05-07 20:03 40.41227 -1.22145 3366 ft 4 kts 266°
2026-05-07 20:03 40.41226 -1.22159 3363 ft 2 kts 266°
2026-05-07 20:03 40.41226 -1.22167 3361 ft 0 kts 266°
2026-05-07 20:05 40.72161 -1.26012 9011 ft 0 kts 172°
2026-05-07 20:06 40.46422 -1.22047 4104 ft 0 kts 177°
2026-05-07 20:06 40.44129 -1.21917 3659 ft 0 kts 176°
2026-05-07 20:06 40.43659 -1.21893 3587 ft 0 kts 176°
2026-05-07 20:06 40.43614 -1.21891 3581 ft 0 kts 176°
2026-05-07 20:07 40.42620 -1.21832 3393 ft 0 kts 175°
2026-05-07 20:07 40.41709 -1.21783 3358 ft 0 kts 178°
2026-05-07 20:07 40.42630 -1.21832 3394 ft 0 kts 175°
2026-05-07 20:07 40.42980 -1.21853 3462 ft 0 kts 175°
2026-05-07 20:08 40.43045 -1.21857 3472 ft 0 kts 175°
2026-05-07 20:08 40.43066 -1.21859 3476 ft 0 kts 175°
2026-05-07 20:09 40.42123 -1.21807 3360 ft 0 kts 176°